Regional Weather Roundup
Issued by NWS Bismarck, ND

Home | Current Version | Previous Version | Text Only | Print | Product List | Glossary On
Versions: 1 2 3 4 5 6 7 8 9 10 11 12 13 14 15 16 17 18 19 20 21 22 23 24 25 26 27 28 29 30 31 32 33 34 35 36 37 38 39 40 41 42 43 44 45 46 47 48 49 50
000
ASUS43 KBIS 072210
RWRBIS

NWR BROADCAST TEXT
NATIONAL WEATHER SERVICE BISMARCK ND
400 PM CST WED DEC 07 2016

NOTE: "FAIR" INDICATES FEW OR NO CLOUDS BELOW 12,000 FEET WITH NO
SIGNIFICANT WEATHER AND/OR OBSTRUCTIONS TO VISIBILITY.


CITY           SKY/WX    TMP DP  RH WIND       PRES   REMARKS
WILLISTON      LGT SNOW   2  -6  69 NW14      30.47R WCI -16
MINOT          LGT SNOW   6   1  80 W29G45    30.29R WCI -17
MINOT AFB      DRZL/FOG   3   0  85 NW33G41   30.28R VSB 1/2 WCI -23
BISMARCK       MIX PCPN   4  -2  76 W22G31    30.34R WCI -18
DICKINSON      MOCLDY     0  -7  72 NW28G35   30.34R HAZE    WCI -25
GARRISON         N/A      2  -2  83 NW38G47   30.29R WCI -26
HETTINGER ARPT PTCLDY     3  -4  72 NW31G40   30.35R HAZE    WCI -22
JAMESTOWN      SNOW       8   4  83 NW35G44   30.17R VSB 1/4 WCI -16
CARRINGTON     SNOW       7   5  92 NW35G46   30.19R VSB<1/4 WCI -18
HAZEN          LGT SNOW   1  -4  78 W25G32    30.37R WCI -22
RUGBY            N/A      9   5  85 NW28G37   30.21R FOG     WCI -13
STANLEY        CLOUDY     3   0  85 NW25G33   30.35R WCI -20
TIOGA          LGT SNOW   1   0  92 NW25G36   30.38R WCI -22
WATFORD CITY   CLOUDY     1  -4  78 NW16G26   30.45R WCI -18
$$

CITY           SKY/WX    TMP DP  RH WIND       PRES   REMARKS
GRAND FORKS    LGT SNOW  20  14  77 NW28G35   30.04R VSB 3/4 WCI   2
GRAND FORKS AF LGT SNOW  19  14  79 NW23G30   30.06R WCI   2
DEVILS LAKE    SNOW      12   9  87 NW28G35   30.12R VSB 1/2 WCI  -9
FARGO          LGT SNOW  16  10  77 W26G33    30.09R WCI  -3
CANDO          LGT SNOW  14  10  85 NW23      30.17R WCI  -5
CAVALIER       SNOW      21  18  86 NW25G35   30.05R VSB 1/2 WCI   4
GRAFTON        CLOUDY    21  18  86 NW18G25   30.06R FOG     WCI   6
GWINNER        CLOUDY    14  10  85 NW25G39   30.16R WCI  -5
LANGDON        SNOW      16  14  93 NW28G39   30.05R VSB 1/2 WCI  -4
ROLLA          HVY SNOW  10   9  92 NW35G44   30.14R WCI -13
WALHALLA       LGT SNOW  19  19 100 NW24G32   30.07R WCI   2
$$

CITY           SKY/WX    TMP DP  RH WIND       PRES   REMARKS
ABERDEEN       CLOUDY    11   0  61 NW24G35   30.29R WCI  -9
MOBRIDGE       MOCLDY     9  -1  64 NW32G41   30.30R WCI -14
BUFFALO          N/A      6  -4  63 NW30G37   30.30R WCI -18
RAPID CITY     CLEAR     12  -4  48 N23       30.34R WCI  -7
GLASGOW        CLOUDY     3  -6  66 NW24G31   30.52R WCI -20
SIDNEY         CLOUDY     3  -6  66 NW21G29   30.49R WCI -18
WOLF POINT     CLOUDY     5  -5  63 W16       30.54R WCI -14
GLENDIVE       CLOUDY     3  -4  72 NW22G29   30.47R WCI -19
MILES CITY     PTCLDY     9  -6  50 NW17      30.50R WCI  -9
$$

CITY           SKY/WX    TMP DP  RH WIND       PRES   REMARKS
BILLINGS       MOSUNNY   12  -3  51 NE5       30.43R WCI   4
GREAT FALLS    CLOUDY     2  -7  66 W3        30.48S
REGINA         CLOUDY     3  -2  78 NW22G29   30.45R WCI -19
ESTEVAN        SNOW       3  -2  78 NW30G39   30.38R VSB 1/2 WCI -21
$$




USA.gov is the U.S. government's official web portal to all federal, state and local government web resources and services.